PIMOHWEATHER Station Historical Data
Daily Summary for March 10, 2020 Units:  Metric    English   Both
Daily Weekly Monthly Yearly
  High: Low: Average:
Temperature: 35.0 °C 26.0 °C 30.2 °C
Dew Point: 28.0 °C 25.0 °C 26.3 °C
Humidity: 93% 60% 81%
Wind Speed: 17km/h 0km/h 7.9km/h
Wind Gust: 24km/h - -
Wind- - South
Pressure: 1011.5 hPa 1007.1 hPa -
Precipitation: 0.00 mm    
 
 
Tabular Data for March 10, 2020
Time Temperature Dew Point Pressure Wind Wind Speed Wind Gust Humidity Rainfall Rate (Hourly) solar
00:04 28.0 °C 26.0 °C 1009.1 hPa SSW 6 km/h 8 km/h 91% 0.00 mm 0.00 W/m2
00:09 28.0 °C 26.0 °C 1008.8 hPa South 6 km/h 8 km/h 91% 0.00 mm 0.00 W/m2
00:14 28.0 °C 27.0 °C 1008.8 hPa South 4 km/h 4 km/h 91% 0.00 mm 0.00 W/m2
00:19 28.0 °C 26.0 °C 1008.8 hPa South 8 km/h 8 km/h 91% 0.00 mm 0.00 W/m2
00:24 28.0 °C 26.0 °C 1008.8 hPa South 5 km/h 8 km/h 91% 0.00 mm 0.00 W/m2
00:29 28.0 °C 27.0 °C 1008.8 hPa SSE 5 km/h 8 km/h 91% 0.00 mm 0.00 W/m2
00:34 28.0 °C 26.0 °C 1008.8 hPa SE 2 km/h 4 km/h 90% 0.00 mm 0.00 W/m2
00:39 28.0 °C 26.0 °C 1008.8 hPa South 1 km/h 4 km/h 90% 0.00 mm 0.00 W/m2
00:44 28.0 °C 26.0 °C 1008.8 hPa South 3 km/h 4 km/h 90% 0.00 mm 0.00 W/m2
00:49 28.0 °C 26.0 °C 1008.8 hPa South 8 km/h 8 km/h 91% 0.00 mm 0.00 W/m2
00:54 28.0 °C 26.0 °C 1008.5 hPa South 5 km/h 8 km/h 90% 0.00 mm 0.00 W/m2
00:59 28.0 °C 26.0 °C 1008.5 hPa SSW 2 km/h 4 km/h 91% 0.00 mm 0.00 W/m2
01:04 28.0 °C 26.0 °C 1008.5 hPa South 2 km/h 4 km/h 91% 0.00 mm 0.00 W/m2
01:09 28.0 °C 26.0 °C 1008.5 hPa SSE 5 km/h 8 km/h 91% 0.00 mm 0.00 W/m2
01:14 28.0 °C 26.0 °C 1008.8 hPa South 3 km/h 4 km/h 90% 0.00 mm 0.00 W/m2
01:19 28.0 °C 26.0 °C 1008.8 hPa South 4 km/h 8 km/h 90% 0.00 mm 0.00 W/m2
01:24 28.0 °C 26.0 °C 1008.5 hPa South 5 km/h 12 km/h 90% 0.00 mm 0.00 W/m2
01:29 28.0 °C 26.0 °C 1008.5 hPa South 4 km/h 8 km/h 91% 0.00 mm 0.00 W/m2
01:34 28.0 °C 27.0 °C 1008.5 hPa SSW 5 km/h 12 km/h 91% 0.00 mm 0.00 W/m2
01:39 28.0 °C 26.0 °C 1008.5 hPa South 5 km/h 8 km/h 91% 0.00 mm 0.00 W/m2
01:44 28.0 °C 27.0 °C 1008.1 hPa South 5 km/h 8 km/h 92% 0.00 mm 0.00 W/m2
01:49 28.0 °C 26.0 °C 1008.1 hPa South 8 km/h 8 km/h 92% 0.00 mm 0.00 W/m2
01:54 28.0 °C 26.0 °C 1008.1 hPa South 8 km/h 8 km/h 92% 0.00 mm 0.00 W/m2
01:59 28.0 °C 26.0 °C 1007.8 hPa South 3 km/h 4 km/h 92% 0.00 mm 0.00 W/m2
02:04 28.0 °C 26.0 °C 1008.1 hPa SW 3 km/h 4 km/h 92% 0.00 mm 0.00 W/m2
02:09 28.0 °C 27.0 °C 1008.1 hPa SSW 3 km/h 4 km/h 93% 0.00 mm 0.00 W/m2
02:14 28.0 °C 27.0 °C 1008.1 hPa South 4 km/h 8 km/h 93% 0.00 mm 0.00 W/m2
02:19 28.0 °C 27.0 °C 1008.1 hPa South 4 km/h 4 km/h 93% 0.00 mm 0.00 W/m2
02:24 28.0 °C 27.0 °C 1008.1 hPa South 1 km/h 4 km/h 93% 0.00 mm 0.00 W/m2
02:29 28.0 °C 27.0 °C 1007.8 hPa Calm   4 km/h 93% 0.00 mm 0.00 W/m2
02:34 28.0 °C 27.0 °C 1007.8 hPa Calm     92% 0.00 mm 0.00 W/m2
02:39 28.0 °C 27.0 °C 1008.1 hPa SSE 3 km/h 4 km/h 92% 0.00 mm 0.00 W/m2
02:44 28.0 °C 26.0 °C 1007.8 hPa WNW 1 km/h 4 km/h 91% 0.00 mm 0.00 W/m2
02:49 28.0 °C 26.0 °C 1007.8 hPa West 1 km/h 4 km/h 91% 0.00 mm 0.00 W/m2
02:54 28.0 °C 26.0 °C 1007.8 hPa WNW 3 km/h 4 km/h 91% 0.00 mm 0.00 W/m2
02:59 28.0 °C 26.0 °C 1007.8 hPa SW 3 km/h 4 km/h 91% 0.00 mm 0.00 W/m2
03:04 28.0 °C 26.0 °C 1007.8 hPa Calm   4 km/h 92% 0.00 mm 0.00 W/m2
03:09 28.0 °C 26.0 °C 1007.8 hPa Calm   4 km/h 91% 0.00 mm 0.00 W/m2
03:14 28.0 °C 26.0 °C 1007.8 hPa South 1 km/h 4 km/h 92% 0.00 mm 0.00 W/m2
03:19 28.0 °C 26.0 °C 1008.1 hPa SE 4 km/h 4 km/h 91% 0.00 mm 0.00 W/m2
03:24 28.0 °C 26.0 °C 1008.1 hPa South 2 km/h 4 km/h 91% 0.00 mm 0.00 W/m2
03:29 28.0 °C 26.0 °C 1007.8 hPa South 1 km/h 4 km/h 91% 0.00 mm 0.00 W/m2
03:34 28.0 °C 26.0 °C 1008.1 hPa SSE 3 km/h 4 km/h 91% 0.00 mm 0.00 W/m2
03:39 28.0 °C 26.0 °C 1008.1 hPa Calm     91% 0.00 mm 0.00 W/m2
03:44 28.0 °C 26.0 °C 1007.8 hPa Calm     90% 0.00 mm 0.00 W/m2
03:49 28.0 °C 26.0 °C 1007.8 hPa SSE 5 km/h 8 km/h 90% 0.00 mm 0.00 W/m2
03:54 28.0 °C 26.0 °C 1007.8 hPa SSE 5 km/h 8 km/h 90% 0.00 mm 0.00 W/m2
03:59 28.0 °C 26.0 °C 1008.1 hPa SSE 4 km/h 8 km/h 90% 0.00 mm 0.00 W/m2
04:04 28.0 °C 26.0 °C 1008.1 hPa South 1 km/h 4 km/h 90% 0.00 mm 0.00 W/m2
04:09 28.0 °C 26.0 °C 1008.1 hPa SSE 5 km/h 8 km/h 90% 0.00 mm 0.00 W/m2
04:14 28.0 °C 26.0 °C 1007.8 hPa SSE 5 km/h 8 km/h 90% 0.00 mm 0.00 W/m2
04:19 28.0 °C 26.0 °C 1008.1 hPa SSE 4 km/h 8 km/h 90% 0.00 mm 0.00 W/m2
04:24 28.0 °C 26.0 °C 1008.1 hPa SSE 5 km/h 8 km/h 90% 0.00 mm 0.00 W/m2
04:29 28.0 °C 26.0 °C 1008.1 hPa SE 5 km/h 8 km/h 89% 0.00 mm 0.00 W/m2
04:34 28.0 °C 26.0 °C 1008.1 hPa SSE 4 km/h 4 km/h 89% 0.00 mm 0.00 W/m2
04:39 28.0 °C 26.0 °C 1008.1 hPa SSE 4 km/h 4 km/h 89% 0.00 mm 0.00 W/m2
04:44 28.0 °C 26.0 °C 1008.5 hPa SE 5 km/h 8 km/h 89% 0.00 mm 0.00 W/m2
04:49 28.0 °C 26.0 °C 1008.5 hPa SSE 2 km/h 4 km/h 89% 0.00 mm 0.00 W/m2
04:54 28.0 °C 26.0 °C 1008.5 hPa South 5 km/h 8 km/h 89% 0.00 mm 0.00 W/m2
04:59 28.0 °C 26.0 °C 1008.5 hPa Calm     89% 0.00 mm 0.00 W/m2
05:04 28.0 °C 26.0 °C 1008.5 hPa SSE 5 km/h 8 km/h 89% 0.00 mm 0.00 W/m2
05:09 28.0 °C 26.0 °C 1008.5 hPa SSE 5 km/h 8 km/h 89% 0.00 mm 0.00 W/m2
05:14 28.0 °C 26.0 °C 1008.5 hPa South 4 km/h 4 km/h 89% 0.00 mm 0.00 W/m2
05:19 28.0 °C 26.0 °C 1008.5 hPa South 5 km/h 8 km/h 90% 0.00 mm 0.00 W/m2
05:24 28.0 °C 26.0 °C 1008.8 hPa South 3 km/h 4 km/h 90% 0.00 mm 0.00 W/m2
05:29 28.0 °C 26.0 °C 1008.8 hPa Calm     90% 0.00 mm 0.00 W/m2
05:34 28.0 °C 26.0 °C 1008.8 hPa Calm   4 km/h 90% 0.00 mm 0.00 W/m2
05:39 28.0 °C 26.0 °C 1008.8 hPa ESE 3 km/h 4 km/h 90% 0.00 mm 0.00 W/m2
05:44 28.0 °C 26.0 °C 1008.8 hPa SSE 3 km/h 4 km/h 90% 0.00 mm 0.00 W/m2
05:49 28.0 °C 26.0 °C 1009.1 hPa SE 3 km/h 4 km/h 90% 0.00 mm 0.00 W/m2
05:54 28.0 °C 26.0 °C 1009.1 hPa Calm     90% 0.00 mm 0.00 W/m2
05:59 28.0 °C 26.0 °C 1009.1 hPa Calm     90% 0.00 mm 0.00 W/m2
06:04 28.0 °C 26.0 °C 1009.5 hPa Calm     89% 0.00 mm 0.00 W/m2
06:09 28.0 °C 26.0 °C 1009.5 hPa Calm   4 km/h 89% 0.00 mm 1.53 W/m2
06:14 28.0 °C 26.0 °C 1009.5 hPa Calm     89% 0.00 mm 4.12 W/m2
06:19 28.0 °C 26.0 °C 1009.5 hPa South 1 km/h 4 km/h 90% 0.00 mm 7.36 W/m2
06:24 28.0 °C 26.0 °C 1009.5 hPa SSE 3 km/h 4 km/h 90% 0.00 mm 12.09 W/m2
06:29 28.0 °C 26.0 °C 1009.5 hPa SSE 3 km/h 4 km/h 91% 0.00 mm 17.95 W/m2
06:34 28.0 °C 26.0 °C 1009.8 hPa Calm     91% 0.00 mm 23.14 W/m2
06:39 28.0 °C 26.0 °C 1009.8 hPa SSE 1 km/h 4 km/h 91% 0.00 mm 27.90 W/m2
06:44 28.0 °C 26.0 °C 1009.8 hPa South 3 km/h 4 km/h 91% 0.00 mm 34.59 W/m2
06:49 28.0 °C 26.0 °C 1009.8 hPa Calm   4 km/h 91% 0.00 mm 39.70 W/m2
06:54 28.0 °C 26.0 °C 1010.2 hPa SSW 4 km/h 8 km/h 91% 0.00 mm 42.18 W/m2
06:59 28.0 °C 26.0 °C 1010.2 hPa Calm     90% 0.00 mm 51.82 W/m2
07:04 28.0 °C 26.0 °C 1010.2 hPa South 3 km/h 4 km/h 90% 0.00 mm 62.98 W/m2
07:09 28.0 °C 26.0 °C 1010.2 hPa South 4 km/h 4 km/h 90% 0.00 mm 59.74 W/m2
07:14 28.0 °C 27.0 °C 1010.5 hPa SW 3 km/h 4 km/h 90% 0.00 mm 73.99 W/m2
07:19 29.0 °C 27.0 °C 1010.5 hPa South 4 km/h 4 km/h 90% 0.00 mm 83.50 W/m2
07:24 29.0 °C 27.0 °C 1010.5 hPa South 1 km/h 4 km/h 89% 0.00 mm 96.03 W/m2
07:29 29.0 °C 27.0 °C 1010.5 hPa Calm     89% 0.00 mm 99.80 W/m2
07:34 29.0 °C 27.0 °C 1010.5 hPa Calm     88% 0.00 mm 107.50 W/m2
07:39 29.0 °C 27.0 °C 1010.5 hPa South 4 km/h 4 km/h 88% 0.00 mm 47.85 W/m2
07:44 29.0 °C 27.0 °C 1010.5 hPa South 4 km/h 4 km/h 88% 0.00 mm 42.36 W/m2
07:49 29.0 °C 26.0 °C 1010.5 hPa WNW 1 km/h 4 km/h 88% 0.00 mm 45.51 W/m2
07:54 29.0 °C 26.0 °C 1010.5 hPa Calm   4 km/h 88% 0.00 mm 46.07 W/m2
07:59 29.0 °C 26.0 °C 1010.5 hPa South 3 km/h 4 km/h 88% 0.00 mm 41.81 W/m2
08:04 29.0 °C 26.0 °C 1010.8 hPa South 3 km/h 4 km/h 88% 0.00 mm 42.91 W/m2
08:09 29.0 °C 26.0 °C 1010.8 hPa South 3 km/h 4 km/h 89% 0.00 mm 52.55 W/m2
08:14 29.0 °C 27.0 °C 1010.8 hPa WSW 1 km/h 4 km/h 89% 0.00 mm 56.99 W/m2
08:19 29.0 °C 27.0 °C 1010.8 hPa South 3 km/h 4 km/h 89% 0.00 mm 124.14 W/m2
08:24 29.0 °C 26.0 °C 1010.8 hPa Calm   4 km/h 88% 0.00 mm 76.76 W/m2
08:29 29.0 °C 26.0 °C 1010.8 hPa SSW 4 km/h 4 km/h 87% 0.00 mm 70.16 W/m2
08:34 29.0 °C 27.0 °C 1010.8 hPa SSE 3 km/h 4 km/h 87% 0.00 mm 194.49 W/m2
08:39 30.0 °C 27.0 °C 1011.2 hPa SSE 6 km/h 8 km/h 85% 0.00 mm 201.07 W/m2
08:44 30.0 °C 27.0 °C 1011.2 hPa South 6 km/h 12 km/h 84% 0.00 mm 71.15 W/m2
08:49 29.0 °C 27.0 °C 1011.2 hPa SSW 5 km/h 8 km/h 86% 0.00 mm 92.38 W/m2
08:54 29.0 °C 27.0 °C 1011.2 hPa South 5 km/h 8 km/h 87% 0.00 mm 168.65 W/m2
08:59 29.0 °C 27.0 °C 1011.2 hPa SSE 6 km/h 8 km/h 87% 0.00 mm 227.22 W/m2
09:04 30.0 °C 27.0 °C 1011.2 hPa SSE 9 km/h 12 km/h 86% 0.00 mm 231.53 W/m2
09:09 30.0 °C 27.0 °C 1011.2 hPa SSE 9 km/h 12 km/h 84% 0.00 mm 254.33 W/m2
09:14 30.0 °C 27.0 °C 1011.2 hPa SSE 10 km/h 16 km/h 83% 0.00 mm 262.41 W/m2
09:19 31.0 °C 27.0 °C 1011.2 hPa South 9 km/h 12 km/h 81% 0.00 mm 300.62 W/m2
09:24 31.0 °C 27.0 °C 1011.2 hPa SSE 10 km/h 12 km/h 80% 0.00 mm 287.04 W/m2
09:29 31.0 °C 27.0 °C 1011.5 hPa South 11 km/h 12 km/h 80% 0.00 mm 283.99 W/m2
09:34 31.0 °C 27.0 °C 1011.2 hPa South 7 km/h 8 km/h 78% 0.00 mm 278.65 W/m2
09:39 31.0 °C 27.0 °C 1011.5 hPa South 9 km/h 16 km/h 78% 0.00 mm 253.18 W/m2
09:44 31.0 °C 27.0 °C 1011.5 hPa South 8 km/h 12 km/h 79% 0.00 mm 312.61 W/m2
09:49 31.0 °C 27.0 °C 1011.2 hPa SSW 9 km/h 12 km/h 77% 0.00 mm 310.51 W/m2
09:54 31.0 °C 27.0 °C 1011.5 hPa SSE 9 km/h 12 km/h 78% 0.00 mm 351.03 W/m2
09:59 32.0 °C 27.0 °C 1011.5 hPa SSE 8 km/h 8 km/h 77% 0.00 mm 349.56 W/m2
10:04 32.0 °C 27.0 °C 1011.2 hPa South 8 km/h 12 km/h 77% 0.00 mm 365.93 W/m2
10:09 32.0 °C 27.0 °C 1011.2 hPa WSW 8 km/h 12 km/h 76% 0.00 mm 351.59 W/m2
10:14 33.0 °C 27.0 °C 1011.2 hPa South 6 km/h 8 km/h 71% 0.00 mm 362.48 W/m2
10:19 32.0 °C 27.0 °C 1011.5 hPa WNW 9 km/h 12 km/h 76% 0.00 mm 376.99 W/m2
10:24 32.0 °C 27.0 °C 1011.2 hPa SSE 9 km/h 12 km/h 76% 0.00 mm 380.95 W/m2
10:29 33.0 °C 27.0 °C 1011.2 hPa SSE 8 km/h 12 km/h 74% 0.00 mm 395.56 W/m2
10:34 33.0 °C 26.0 °C 1011.2 hPa South 8 km/h 8 km/h 71% 0.00 mm 397.05 W/m2
10:39 33.0 °C 27.0 °C 1011.2 hPa West 9 km/h 12 km/h 71% 0.00 mm 427.29 W/m2
10:44 33.0 °C 27.0 °C 1011.2 hPa South 10 km/h 12 km/h 72% 0.00 mm 372.39 W/m2
10:49 33.0 °C 27.0 °C 1011.2 hPa South 10 km/h 12 km/h 72% 0.00 mm 367.44 W/m2
10:54 33.0 °C 27.0 °C 1010.8 hPa South 13 km/h 16 km/h 71% 0.00 mm 369.38 W/m2
10:59 33.0 °C 27.0 °C 1011.2 hPa SSW 12 km/h 16 km/h 72% 0.00 mm 348.95 W/m2
11:04 33.0 °C 27.0 °C 1011.2 hPa South 12 km/h 12 km/h 72% 0.00 mm 403.58 W/m2
11:09 33.0 °C 26.0 °C 1010.8 hPa NW 13 km/h 16 km/h 70% 0.00 mm 390.05 W/m2
11:14 33.0 °C 26.0 °C 1010.8 hPa South 7 km/h 12 km/h 68% 0.00 mm 404.41 W/m2
11:19 33.0 °C 26.0 °C 1010.8 hPa WNW 12 km/h 12 km/h 69% 0.00 mm 430.13 W/m2
11:24 33.0 °C 26.0 °C 1010.8 hPa South 9 km/h 12 km/h 68% 0.00 mm 430.28 W/m2
11:29 34.0 °C 26.0 °C 1010.5 hPa SSW 8 km/h 12 km/h 68% 0.00 mm 429.08 W/m2
11:34 34.0 °C 26.0 °C 1010.5 hPa SW 5 km/h 8 km/h 66% 0.00 mm 430.52 W/m2
11:39 34.0 °C 26.0 °C 1010.5 hPa South 12 km/h 16 km/h 66% 0.00 mm 437.98 W/m2
11:44 33.0 °C 26.0 °C 1010.5 hPa South 12 km/h 16 km/h 68% 0.00 mm 424.16 W/m2
11:49 33.0 °C 26.0 °C 1010.2 hPa South 15 km/h 20 km/h 68% 0.00 mm 421.03 W/m2
11:54 34.0 °C 26.0 °C 1010.2 hPa North 8 km/h 12 km/h 66% 0.00 mm 420.02 W/m2
11:59 34.0 °C 26.0 °C 1010.2 hPa SSE 8 km/h 8 km/h 64% 0.00 mm 438.47 W/m2
12:04 34.0 °C 26.0 °C 1010.2 hPa South 14 km/h 16 km/h 66% 0.00 mm 447.62 W/m2
12:09 33.0 °C 26.0 °C 1010.2 hPa SSE 10 km/h 16 km/h 66% 0.00 mm 427.85 W/m2
12:14 33.0 °C 26.0 °C 1009.8 hPa SSW 12 km/h 16 km/h 65% 0.00 mm 428.25 W/m2
12:19 34.0 °C 26.0 °C 1009.8 hPa SW 8 km/h 12 km/h 64% 0.00 mm 440.94 W/m2
12:24 34.0 °C 26.0 °C 1009.5 hPa WSW 13 km/h 16 km/h 65% 0.00 mm 441.31 W/m2
12:29 34.0 °C 26.0 °C 1009.5 hPa SSE 12 km/h 16 km/h 66% 0.00 mm 449.78 W/m2
12:34 34.0 °C 26.0 °C 1009.8 hPa South 10 km/h 12 km/h 64% 0.00 mm 443.71 W/m2
12:39 34.0 °C 26.0 °C 1009.5 hPa SW 11 km/h 12 km/h 63% 0.00 mm 443.05 W/m2
12:44 34.0 °C 26.0 °C 1009.5 hPa South 15 km/h 20 km/h 64% 0.00 mm 451.95 W/m2
12:49 33.0 °C 25.0 °C 1009.1 hPa South 15 km/h 24 km/h 64% 0.00 mm 448.28 W/m2
12:54 33.0 °C 25.0 °C 1009.1 hPa SSW 10 km/h 12 km/h 64% 0.00 mm 441.36 W/m2
12:59 33.0 °C 26.0 °C 1009.1 hPa SSW 15 km/h 16 km/h 64% 0.00 mm 439.21 W/m2
13:04 34.0 °C 26.0 °C 1009.1 hPa SSW 13 km/h 16 km/h 64% 0.00 mm 453.20 W/m2
13:09 34.0 °C 26.0 °C 1009.1 hPa SSW 12 km/h 12 km/h 65% 0.00 mm 450.71 W/m2
13:14 34.0 °C 26.0 °C 1008.8 hPa SSE 12 km/h 16 km/h 63% 0.00 mm 446.69 W/m2
13:19 34.0 °C 25.0 °C 1008.8 hPa South 12 km/h 16 km/h 63% 0.00 mm 450.68 W/m2
13:24 34.0 °C 26.0 °C 1008.8 hPa South 11 km/h 16 km/h 63% 0.00 mm 448.97 W/m2
13:29 34.0 °C 26.0 °C 1008.8 hPa SSW 9 km/h 16 km/h 62% 0.00 mm 447.23 W/m2
13:34 34.0 °C 26.0 °C 1008.8 hPa South 17 km/h 20 km/h 63% 0.00 mm 443.59 W/m2
13:39 34.0 °C 26.0 °C 1008.5 hPa SSW 11 km/h 12 km/h 62% 0.00 mm 446.35 W/m2
13:44 34.0 °C 25.0 °C 1008.5 hPa South 12 km/h 16 km/h 63% 0.00 mm 443.56 W/m2
13:49 34.0 °C 25.0 °C 1008.5 hPa SSW 11 km/h 16 km/h 63% 0.00 mm 431.38 W/m2
13:54 34.0 °C 26.0 °C 1008.5 hPa South 15 km/h 20 km/h 61% 0.00 mm 437.98 W/m2
13:59 35.0 °C 26.0 °C 1008.1 hPa SSW 11 km/h 12 km/h 61% 0.00 mm 440.58 W/m2
14:04 35.0 °C 26.0 °C 1007.8 hPa SSW 9 km/h 16 km/h 60% 0.00 mm 436.74 W/m2
14:09 35.0 °C 26.0 °C 1008.1 hPa SW 13 km/h 16 km/h 61% 0.00 mm 436.05 W/m2
14:14 35.0 °C 26.0 °C 1008.1 hPa South 10 km/h 12 km/h 61% 0.00 mm 429.32 W/m2
14:19 35.0 °C 26.0 °C 1007.8 hPa South 10 km/h 12 km/h 61% 0.00 mm 416.18 W/m2
14:24 35.0 °C 26.0 °C 1007.8 hPa South 15 km/h 20 km/h 62% 0.00 mm 428.10 W/m2
14:29 34.0 °C 26.0 °C 1007.8 hPa South 13 km/h 16 km/h 62% 0.00 mm 424.36 W/m2
14:34 34.0 °C 26.0 °C 1007.5 hPa South 13 km/h 16 km/h 62% 0.00 mm 407.55 W/m2
14:39 35.0 °C 26.0 °C 1007.5 hPa SSW 10 km/h 12 km/h 61% 0.00 mm 409.75 W/m2
14:44 35.0 °C 26.0 °C 1007.5 hPa South 10 km/h 12 km/h 61% 0.00 mm 398.86 W/m2
14:49 35.0 °C 26.0 °C 1007.5 hPa WSW 12 km/h 16 km/h 62% 0.00 mm 398.54 W/m2
14:54 35.0 °C 26.0 °C 1007.5 hPa SSE 10 km/h 16 km/h 63% 0.00 mm 401.16 W/m2
14:59 35.0 °C 26.0 °C 1007.5 hPa SSW 11 km/h 12 km/h 63% 0.00 mm 388.22 W/m2
15:04 35.0 °C 27.0 °C 1007.5 hPa South 14 km/h 16 km/h 64% 0.00 mm 371.36 W/m2
15:09 34.0 °C 27.0 °C 1007.1 hPa SSW 14 km/h 20 km/h 69% 0.00 mm 370.26 W/m2
15:14 34.0 °C 27.0 °C 1007.5 hPa South 15 km/h 20 km/h 71% 0.00 mm 363.80 W/m2
15:19 34.0 °C 27.0 °C 1007.1 hPa South 17 km/h 20 km/h 72% 0.00 mm 361.50 W/m2
15:24 33.0 °C 27.0 °C 1007.5 hPa South 14 km/h 16 km/h 74% 0.00 mm 352.91 W/m2
15:29 33.0 °C 28.0 °C 1007.5 hPa South 17 km/h 20 km/h 74% 0.00 mm 339.85 W/m2
15:34 33.0 °C 27.0 °C 1007.5 hPa South 15 km/h 24 km/h 73% 0.00 mm 336.10 W/m2
15:39 33.0 °C 28.0 °C 1007.5 hPa South 12 km/h 16 km/h 74% 0.00 mm 326.29 W/m2
15:44 33.0 °C 28.0 °C 1007.1 hPa South 15 km/h 20 km/h 75% 0.00 mm 328.20 W/m2
15:49 33.0 °C 27.0 °C 1007.5 hPa SSW 15 km/h 16 km/h 74% 0.00 mm 314.64 W/m2
15:54 33.0 °C 27.0 °C 1007.5 hPa South 17 km/h 20 km/h 74% 0.00 mm 310.29 W/m2
15:59 33.0 °C 27.0 °C 1007.5 hPa South 14 km/h 16 km/h 73% 0.00 mm 289.52 W/m2
16:04 33.0 °C 27.0 °C 1007.5 hPa South 12 km/h 16 km/h 73% 0.00 mm 289.96 W/m2
16:09 33.0 °C 27.0 °C 1007.5 hPa South 13 km/h 16 km/h 72% 0.00 mm 277.50 W/m2
16:14 32.0 °C 27.0 °C 1007.5 hPa South 16 km/h 20 km/h 74% 0.00 mm 270.38 W/m2
16:19 33.0 °C 27.0 °C 1007.5 hPa South 12 km/h 16 km/h 75% 0.00 mm 253.97 W/m2
16:24 33.0 °C 27.0 °C 1007.5 hPa South 13 km/h 16 km/h 73% 0.00 mm 236.72 W/m2
16:29 32.0 °C 27.0 °C 1007.5 hPa South 15 km/h 20 km/h 75% 0.00 mm 236.32 W/m2
16:34 32.0 °C 27.0 °C 1007.5 hPa South 12 km/h 16 km/h 73% 0.00 mm 208.82 W/m2
16:39 32.0 °C 27.0 °C 1007.1 hPa South 17 km/h 20 km/h 74% 0.00 mm 197.72 W/m2
16:44 32.0 °C 27.0 °C 1007.1 hPa South 14 km/h 20 km/h 74% 0.00 mm 189.03 W/m2
16:49 32.0 °C 27.0 °C 1007.1 hPa SSE 14 km/h 16 km/h 74% 0.00 mm 175.60 W/m2
16:54 32.0 °C 27.0 °C 1007.5 hPa South 14 km/h 20 km/h 76% 0.00 mm 158.84 W/m2
16:59 32.0 °C 26.0 °C 1007.5 hPa SSE 16 km/h 20 km/h 74% 0.00 mm 147.63 W/m2
17:04 32.0 °C 27.0 °C 1007.5 hPa SSE 13 km/h 16 km/h 74% 0.00 mm 136.40 W/m2
17:09 31.0 °C 26.0 °C 1007.5 hPa South 10 km/h 12 km/h 75% 0.00 mm 131.38 W/m2
17:14 31.0 °C 26.0 °C 1007.8 hPa SSE 14 km/h 16 km/h 75% 0.00 mm 87.03 W/m2
17:19 31.0 °C 26.0 °C 1007.8 hPa South 11 km/h 16 km/h 77% 0.00 mm 79.86 W/m2
17:24 31.0 °C 26.0 °C 1007.8 hPa South 14 km/h 20 km/h 78% 0.00 mm 68.58 W/m2
17:29 31.0 °C 26.0 °C 1007.8 hPa South 8 km/h 12 km/h 78% 0.00 mm 55.73 W/m2
17:34 31.0 °C 27.0 °C 1007.8 hPa South 15 km/h 16 km/h 79% 0.00 mm 47.06 W/m2
17:39 30.0 °C 27.0 °C 1007.8 hPa South 15 km/h 20 km/h 80% 0.00 mm 37.69 W/m2
17:44 31.0 °C 27.0 °C 1007.8 hPa South 9 km/h 12 km/h 80% 0.00 mm 28.11 W/m2
17:49 31.0 °C 26.0 °C 1007.8 hPa SSE 10 km/h 16 km/h 79% 0.00 mm 20.69 W/m2
17:54 31.0 °C 27.0 °C 1007.8 hPa SSE 8 km/h 12 km/h 80% 0.00 mm 13.93 W/m2
17:59 31.0 °C 27.0 °C 1007.8 hPa South 8 km/h 8 km/h 80% 0.00 mm 7.69 W/m2
18:04 30.0 °C 27.0 °C 1007.8 hPa SSE 10 km/h 12 km/h 81% 0.00 mm 3.87 W/m2
18:09 30.0 °C 26.0 °C 1007.8 hPa South 9 km/h 12 km/h 81% 0.00 mm 0.84 W/m2
18:14 30.0 °C 27.0 °C 1008.1 hPa South 10 km/h 12 km/h 82% 0.00 mm 0.00 W/m2
18:19 30.0 °C 26.0 °C 1008.1 hPa South 10 km/h 12 km/h 81% 0.00 mm 0.00 W/m2
18:24 30.0 °C 26.0 °C 1008.1 hPa SSE 8 km/h 8 km/h 81% 0.00 mm 0.00 W/m2
18:29 30.0 °C 26.0 °C 1008.5 hPa SSE 9 km/h 12 km/h 81% 0.00 mm 0.00 W/m2
18:34 30.0 °C 26.0 °C 1008.1 hPa SSE 9 km/h 12 km/h 80% 0.00 mm 0.00 W/m2
18:39 30.0 °C 26.0 °C 1008.5 hPa South 5 km/h 8 km/h 78% 0.00 mm 0.00 W/m2
18:44 30.0 °C 26.0 °C 1008.5 hPa SSE 9 km/h 12 km/h 79% 0.00 mm 0.00 W/m2
18:49 30.0 °C 26.0 °C 1008.5 hPa SSE 8 km/h 12 km/h 79% 0.00 mm 0.00 W/m2
18:54 30.0 °C 26.0 °C 1008.5 hPa SSE 10 km/h 12 km/h 81% 0.00 mm 0.00 W/m2
18:59 30.0 °C 26.0 °C 1008.8 hPa SSE 8 km/h 12 km/h 82% 0.00 mm 0.00 W/m2
19:04 30.0 °C 26.0 °C 1008.8 hPa SSE 10 km/h 12 km/h 82% 0.00 mm 0.00 W/m2
19:09 30.0 °C 27.0 °C 1008.8 hPa SSE 13 km/h 16 km/h 83% 0.00 mm 0.00 W/m2
19:14 30.0 °C 26.0 °C 1008.8 hPa SSE 13 km/h 16 km/h 83% 0.00 mm 0.00 W/m2
19:19 30.0 °C 26.0 °C 1008.8 hPa SSE 9 km/h 16 km/h 83% 0.00 mm 0.00 W/m2
19:24 30.0 °C 26.0 °C 1008.8 hPa SSE 7 km/h 8 km/h 84% 0.00 mm 0.00 W/m2
19:29 30.0 °C 26.0 °C 1008.8 hPa SSE 15 km/h 20 km/h 83% 0.00 mm 0.00 W/m2
19:34 30.0 °C 26.0 °C 1008.8 hPa SSE 10 km/h 12 km/h 82% 0.00 mm 0.00 W/m2
19:39 30.0 °C 26.0 °C 1008.8 hPa South 11 km/h 12 km/h 82% 0.00 mm 0.00 W/m2
19:44 30.0 °C 26.0 °C 1009.1 hPa SSE 14 km/h 16 km/h 82% 0.00 mm 0.00 W/m2
19:49 30.0 °C 26.0 °C 1009.1 hPa South 10 km/h 12 km/h 83% 0.00 mm 0.00 W/m2
19:54 30.0 °C 26.0 °C 1009.5 hPa South 8 km/h 8 km/h 82% 0.00 mm 0.00 W/m2
19:59 30.0 °C 26.0 °C 1009.5 hPa SSW 8 km/h 8 km/h 82% 0.00 mm 0.00 W/m2
20:04 30.0 °C 26.0 °C 1009.5 hPa South 4 km/h 8 km/h 82% 0.00 mm 0.00 W/m2
20:09 30.0 °C 26.0 °C 1009.5 hPa SSE 5 km/h 8 km/h 82% 0.00 mm 0.00 W/m2
20:14 30.0 °C 26.0 °C 1009.5 hPa SSE 9 km/h 12 km/h 82% 0.00 mm 0.00 W/m2
20:19 30.0 °C 26.0 °C 1009.8 hPa SE 10 km/h 12 km/h 81% 0.00 mm 0.00 W/m2
20:24 30.0 °C 26.0 °C 1009.8 hPa SSE 9 km/h 12 km/h 81% 0.00 mm 0.00 W/m2
20:29 30.0 °C 26.0 °C 1009.8 hPa South 7 km/h 8 km/h 81% 0.00 mm 0.00 W/m2
20:34 30.0 °C 26.0 °C 1010.2 hPa SSE 9 km/h 12 km/h 81% 0.00 mm 0.00 W/m2
20:39 30.0 °C 26.0 °C 1010.2 hPa SSE 12 km/h 16 km/h 81% 0.00 mm 0.00 W/m2
20:44 30.0 °C 26.0 °C 1010.2 hPa SSE 12 km/h 16 km/h 81% 0.00 mm 0.00 W/m2
20:49 30.0 °C 26.0 °C 1010.2 hPa SSE 11 km/h 16 km/h 82% 0.00 mm 0.00 W/m2
20:54 30.0 °C 26.0 °C 1010.5 hPa SSE 15 km/h 20 km/h 82% 0.00 mm 0.00 W/m2
20:59 30.0 °C 26.0 °C 1010.5 hPa SSE 12 km/h 12 km/h 82% 0.00 mm 0.00 W/m2
21:04 29.0 °C 26.0 °C 1010.5 hPa SSE 15 km/h 20 km/h 83% 0.00 mm 0.00 W/m2
21:09 29.0 °C 26.0 °C 1010.5 hPa SSE 10 km/h 12 km/h 82% 0.00 mm 0.00 W/m2
21:14 29.0 °C 26.0 °C 1010.5 hPa SSE 10 km/h 12 km/h 83% 0.00 mm 0.00 W/m2
21:19 29.0 °C 26.0 °C 1010.8 hPa SSE 9 km/h 12 km/h 83% 0.00 mm 0.00 W/m2
21:24 29.0 °C 26.0 °C 1010.8 hPa SSE 12 km/h 16 km/h 83% 0.00 mm 0.00 W/m2
21:29 29.0 °C 26.0 °C 1010.8 hPa SSE 14 km/h 16 km/h 83% 0.00 mm 0.00 W/m2
21:34 29.0 °C 26.0 °C 1010.8 hPa SSE 13 km/h 16 km/h 84% 0.00 mm 0.00 W/m2
21:39 29.0 °C 26.0 °C 1010.8 hPa SSE 12 km/h 16 km/h 84% 0.00 mm 0.00 W/m2
21:44 29.0 °C 26.0 °C 1010.8 hPa South 9 km/h 12 km/h 85% 0.00 mm 0.00 W/m2
21:49 29.0 °C 26.0 °C 1010.8 hPa South 12 km/h 12 km/h 85% 0.00 mm 0.00 W/m2
21:54 29.0 °C 27.0 °C 1010.8 hPa South 11 km/h 16 km/h 86% 0.00 mm 0.00 W/m2
21:59 29.0 °C 27.0 °C 1010.8 hPa South 10 km/h 12 km/h 86% 0.00 mm 0.00 W/m2
22:04 29.0 °C 27.0 °C 1010.8 hPa South 10 km/h 16 km/h 86% 0.00 mm 0.00 W/m2
22:09 29.0 °C 27.0 °C 1011.2 hPa South 10 km/h 12 km/h 86% 0.00 mm 0.00 W/m2
22:14 29.0 °C 27.0 °C 1011.2 hPa South 15 km/h 16 km/h 87% 0.00 mm 0.00 W/m2
22:19 29.0 °C 27.0 °C 1010.8 hPa South 9 km/h 12 km/h 88% 0.00 mm 0.00 W/m2
22:24 29.0 °C 27.0 °C 1010.8 hPa SSW 10 km/h 16 km/h 90% 0.00 mm 0.00 W/m2
22:29 29.0 °C 27.0 °C 1010.8 hPa SW 5 km/h 12 km/h 90% 0.00 mm 0.00 W/m2
22:34 29.0 °C 27.0 °C 1010.8 hPa South 6 km/h 12 km/h 90% 0.00 mm 0.00 W/m2
22:39 29.0 °C 27.0 °C 1011.2 hPa SSW 4 km/h 4 km/h 90% 0.00 mm 0.00 W/m2
22:44 29.0 °C 26.0 °C 1011.2 hPa SSW 6 km/h 8 km/h 90% 0.00 mm 0.00 W/m2
22:49 28.0 °C 26.0 °C 1011.2 hPa SW 12 km/h 16 km/h 91% 0.00 mm 0.00 W/m2
22:54 27.0 °C 26.0 °C 1011.2 hPa SSW 5 km/h 8 km/h 92% 0.00 mm 0.00 W/m2
22:59 27.0 °C 26.0 °C 1011.2 hPa WSW 9 km/h 12 km/h 92% 0.00 mm 0.00 W/m2
23:04 27.0 °C 26.0 °C 1011.2 hPa South 5 km/h 8 km/h 92% 0.00 mm 0.00 W/m2
23:09 27.0 °C 26.0 °C 1011.2 hPa South 4 km/h 4 km/h 92% 0.00 mm 0.00 W/m2
23:14 27.0 °C 26.0 °C 1011.2 hPa SSE 14 km/h 16 km/h 91% 0.00 mm 0.00 W/m2
23:19 27.0 °C 25.0 °C 1011.2 hPa South 10 km/h 16 km/h 91% 0.00 mm 0.00 W/m2
23:24 27.0 °C 26.0 °C 1011.2 hPa South 6 km/h 8 km/h 91% 0.00 mm 0.00 W/m2
23:29 27.0 °C 25.0 °C 1011.2 hPa SSE 14 km/h 16 km/h 90% 0.00 mm 0.00 W/m2
23:34 27.0 °C 25.0 °C 1011.2 hPa SSE 14 km/h 20 km/h 90% 0.00 mm 0.00 W/m2
23:36 27.0 °C 25.0 °C 1011.2 hPa South 12 km/h 16 km/h 90% 0.00 mm 0.00 W/m2
23:49 27.0 °C 25.0 °C 1011.2 hPa South 6 km/h 8 km/h 93% 0.00 mm 0.00 W/m2
23:54 27.0 °C 25.0 °C 1011.5 hPa SSW 8 km/h 12 km/h 93% 0.00 mm 0.00 W/m2
23:59 26.0 °C 25.0 °C 1011.5 hPa South 6 km/h 8 km/h 93% 0.00 mm 0.00 W/m2
PIMOHWEATHER Philippines
Compliments of Weather Underground - 2 mb